| time (UTC) | temp F | wind direction | speed MPH | gust MPH | rain 1hr in | rain 24hr in | rain mn in | humidity % | barometer mb |
| 20260506030255 | 45 | 267 | 0.0 | 0.0 | 0.00 | 0.02 | 0.00 | 62 | 974.0 |
| 20260506025617 | 46 | 267 | 0.0 | 0.0 | 0.00 | 0.02 | 0.00 | 60 | 973.9 |
| 20260506024936 | 46 | 267 | 0.0 | 0.0 | 0.00 | 0.02 | 0.00 | 59 | 973.9 |
| 20260506024259 | 46 | 267 | 0.0 | 0.0 | 0.00 | 0.02 | 0.00 | 59 | 973.8 |
| 20260506023618 | 47 | 267 | 0.0 | 0.0 | 0.00 | 0.02 | 0.00 | 58 | 973.6 |
| 20260506022259 | 47 | 267 | 0.0 | 0.0 | 0.00 | 0.02 | 0.00 | 57 | 973.3 |
| 20260506021622 | 47 | 267 | 0.0 | 0.0 | 0.00 | 0.02 | 0.00 | 57 | 973.4 |
| 20260506020941 | 47 | 267 | 0.0 | 0.0 | 0.00 | 0.02 | 0.00 | 57 | 973.3 |
| 20260506020303 | 47 | 267 | 0.0 | 0.0 | 0.00 | 0.02 | 0.00 | 56 | 973.2 |
| 20260506014945 | 48 | 267 | 0.0 | 0.0 | 0.00 | 0.02 | 0.00 | 55 | 973.1 |
| 20260506014304 | 48 | 290 | 0.0 | 0.0 | 0.00 | 0.02 | 0.00 | 54 | 973.1 |
| 20260506012945 | 48 | 287 | 0.0 | 0.0 | 0.00 | 0.02 | 0.00 | 53 | 972.8 |
| 20260506012308 | 49 | 287 | 0.0 | 0.0 | 0.00 | 0.02 | 0.00 | 52 | 972.6 |
| 20260506011627 | 49 | 281 | 1.0 | 0.0 | 0.00 | 0.02 | 0.00 | 52 | 972.6 |
| 20260506010950 | 49 | 280 | 1.0 | 0.0 | 0.00 | 0.02 | 0.00 | 52 | 972.5 |
| 20260506010309 | 49 | 290 | 0.0 | 0.0 | 0.00 | 0.02 | 0.00 | 51 | 972.5 |
| 20260506005631 | 49 | 322 | 1.0 | 0.0 | 0.00 | 0.02 | 0.00 | 51 | 972.3 |
| 20260506004950 | 50 | 315 | 1.0 | 6.0 | 0.00 | 0.02 | 0.00 | 50 | 972.2 |
| 20260506003632 | 50 | 281 | 4.0 | 0.0 | 0.00 | 0.02 | 0.00 | 48 | 972.1 |
| 20260506002954 | 50 | 281 | 0.0 | 0.0 | 0.00 | 0.02 | 0.00 | 48 | 972.0 |
| 20260506002313 | 51 | 316 | 4.0 | 3.0 | 0.00 | 0.02 | 0.00 | 47 | 972.0 |
| 20260506001636 | 51 | 277 | 1.0 | 6.0 | 0.00 | 0.02 | 0.00 | 47 | 971.9 |
| 20260506000955 | 51 | 242 | 2.0 | 0.0 | 0.00 | 0.02 | 0.00 | 46 | 971.8 |
| 20260506000318 | 51 | 305 | 2.0 | 4.0 | 0.00 | 0.02 | 0.00 | 46 | 971.6 |
| 20260505235637 | 52 | 284 | 5.0 | 0.0 | 0.00 | 0.02 | 0.00 | 46 | 971.6 |
| 20260505234959 | 52 | 302 | 3.0 | 5.0 | 0.00 | 0.02 | 0.00 | 46 | 971.5 |
| 20260505234318 | 52 | 301 | 6.0 | 4.0 | 0.00 | 0.02 | 0.00 | 47 | 971.4 |
| 20260505233641 | 53 | 307 | 3.0 | 0.0 | 0.00 | 0.02 | 0.00 | 47 | 971.3 |
| 20260505233000 | 53 | 316 | 3.0 | 0.0 | 0.00 | 0.02 | 0.00 | 47 | 971.3 |
| 20260505232323 | 53 | 301 | 1.0 | 5.0 | 0.00 | 0.02 | 0.00 | 47 | 971.1 |
| 20260505231642 | 53 | 267 | 0.0 | 3.0 | 0.00 | 0.02 | 0.00 | 47 | 971.1 |
| 20260505231004 | 53 | 297 | 6.0 | 7.0 | 0.00 | 0.02 | 0.00 | 46 | 971.0 |
| 20260505230323 | 53 | 328 | 0.0 | 0.0 | 0.00 | 0.02 | 0.00 | 47 | 971.0 |
| 20260505225646 | 53 | 307 | 1.0 | 0.0 | 0.00 | 0.02 | 0.00 | 47 | 971.0 |
| 20260505225005 | 53 | 307 | 1.0 | 0.0 | 0.00 | 0.02 | 0.00 | 47 | 970.9 |
| 20260505224328 | 53 | 263 | 4.0 | 3.0 | 0.00 | 0.02 | 0.00 | 47 | 970.8 |
| 20260505223647 | 54 | 242 | 4.0 | 2.0 | 0.00 | 0.02 | 0.00 | 47 | 970.9 |
| 20260505223009 | 54 | 309 | 6.0 | 4.0 | 0.00 | 0.02 | 0.00 | 48 | 970.7 |
| 20260505222328 | 54 | 332 | 4.0 | 4.0 | 0.00 | 0.02 | 0.00 | 47 | 970.8 |
| 20260505221651 | 54 | 323 | 6.0 | 5.0 | 0.00 | 0.02 | 0.00 | 47 | 970.8 |
| 20260505221011 | 54 | 245 | 0.0 | 0.0 | 0.00 | 0.02 | 0.00 | 48 | 970.7 |
| 20260505220333 | 54 | 253 | 1.0 | 0.0 | 0.00 | 0.02 | 0.00 | 47 | 970.7 |
| 20260505215652 | 54 | 215 | 8.0 | 0.0 | 0.00 | 0.02 | 0.00 | 47 | 970.7 |
| 20260505215014 | 55 | 266 | 7.0 | 9.0 | 0.00 | 0.02 | 0.00 | 47 | 971.0 |
| 20260505214334 | 55 | 263 | 1.0 | 0.0 | 0.00 | 0.02 | 0.00 | 47 | 971.0 |
| 20260505213656 | 54 | 281 | 5.0 | 5.0 | 0.00 | 0.02 | 0.00 | 47 | 971.0 |
| 20260505213015 | 54 | 267 | 5.0 | 3.0 | 0.00 | 0.02 | 0.00 | 47 | 970.9 |
| 20260505212338 | 55 | 207 | 0.0 | 0.0 | 0.00 | 0.02 | 0.00 | 48 | 970.9 |
| 20260505211657 | 54 | 229 | 1.0 | 7.0 | 0.00 | 0.02 | 0.00 | 48 | 971.1 |
| 20260505211020 | 54 | 194 | 5.0 | 14.0 | 0.00 | 0.02 | 0.00 | 48 | 971.0 |
| 20260505210339 | 54 | 210 | 10.0 | 8.0 | 0.00 | 0.02 | 0.00 | 48 | 970.9 |
| 20260505205701 | 54 | 218 | 6.0 | 0.0 | 0.00 | 0.02 | 0.00 | 48 | 971.0 |
| 20260505205021 | 54 | 225 | 6.0 | 8.0 | 0.00 | 0.02 | 0.00 | 48 | 971.1 |
| 20260505204343 | 54 | 183 | 5.0 | 0.0 | 0.00 | 0.02 | 0.00 | 48 | 970.9 |
| 20260505203702 | 54 | 278 | 6.0 | 2.0 | 0.00 | 0.02 | 0.00 | 47 | 971.0 |
| 20260505203025 | 54 | 284 | 6.0 | 9.0 | 0.00 | 0.02 | 0.00 | 47 | 971.0 |
| 20260505202344 | 54 | 263 | 6.0 | 10.0 | 0.00 | 0.02 | 0.00 | 48 | 971.1 |
| 20260505201707 | 54 | 274 | 9.0 | 7.0 | 0.00 | 0.02 | 0.00 | 47 | 971.2 |
| 20260505201026 | 54 | 267 | 8.0 | 9.0 | 0.00 | 0.02 | 0.00 | 48 | 971.1 |
| 20260505200348 | 54 | 248 | 4.0 | 9.0 | 0.00 | 0.02 | 0.00 | 47 | 971.1 |
| 20260505195708 | 54 | 309 | 4.0 | 7.0 | 0.00 | 0.02 | 0.00 | 48 | 971.1 |
| 20260505195030 | 54 | 240 | 2.0 | 3.0 | 0.00 | 0.02 | 0.00 | 46 | 971.0 |
| 20260505194349 | 54 | 188 | 9.0 | 5.0 | 0.00 | 0.02 | 0.00 | 46 | 970.8 |
| 20260505193712 | 55 | 207 | 8.0 | 12.0 | 0.00 | 0.02 | 0.00 | 45 | 970.9 |
| 20260505193031 | 54 | 221 | 3.0 | 10.0 | 0.00 | 0.02 | 0.00 | 45 | 970.9 |
| 20260505192354 | 55 | 232 | 6.0 | 5.0 | 0.00 | 0.02 | 0.00 | 44 | 970.7 |
| 20260505191713 | 55 | 260 | 0.0 | 6.0 | 0.00 | 0.02 | 0.00 | 46 | 970.7 |
| 20260505191036 | 55 | 212 | 3.0 | 6.0 | 0.00 | 0.02 | 0.00 | 44 | 970.6 |
| 20260505190355 | 55 | 225 | 6.0 | 0.0 | 0.00 | 0.02 | 0.00 | 44 | 970.7 |
| 20260505185717 | 55 | 217 | 2.0 | 5.0 | 0.00 | 0.02 | 0.00 | 44 | 970.6 |
| 20260505185036 | 55 | 211 | 7.0 | 5.0 | 0.00 | 0.02 | 0.00 | 45 | 970.4 |
| 20260505184359 | 55 | 249 | 3.0 | 8.0 | 0.00 | 0.02 | 0.00 | 44 | 970.3 |
| 20260505183718 | 55 | 238 | 7.0 | 6.0 | 0.00 | 0.02 | 0.00 | 45 | 970.7 |
| 20260505183041 | 55 | 229 | 7.0 | 5.0 | 0.00 | 0.02 | 0.00 | 43 | 970.6 |
| 20260505182400 | 55 | 256 | 4.0 | 0.0 | 0.00 | 0.02 | 0.00 | 44 | 970.5 |
| 20260505181042 | 55 | 262 | 8.0 | 6.0 | 0.00 | 0.02 | 0.00 | 44 | 970.6 |
| 20260505180405 | 55 | 338 | 6.0 | 8.0 | 0.00 | 0.02 | 0.00 | 43 | 970.3 |
| 20260505175724 | 55 | 278 | 7.0 | 0.0 | 0.00 | 0.02 | 0.00 | 42 | 970.2 |
| 20260505175046 | 55 | 288 | 7.0 | 7.0 | 0.00 | 0.02 | 0.00 | 43 | 970.3 |
| 20260505174405 | 54 | 263 | 6.0 | 7.0 | 0.00 | 0.02 | 0.00 | 44 | 970.0 |
| 20260505173728 | 54 | 262 | 4.0 | 6.0 | 0.00 | 0.02 | 0.00 | 46 | 969.9 |
| 20260505172410 | 54 | 285 | 6.0 | 9.0 | 0.00 | 0.02 | 0.00 | 44 | 969.9 |
| 20260505171729 | 54 | 322 | 8.0 | 3.0 | 0.00 | 0.02 | 0.00 | 44 | 969.9 |
| 20260505171052 | 54 | 263 | 10.0 | 4.0 | 0.00 | 0.02 | 0.00 | 44 | 969.9 |
| 20260505170411 | 53 | 342 | 4.0 | 6.0 | 0.00 | 0.02 | 0.00 | 46 | 970.0 |
| 20260505165734 | 54 | 252 | 8.0 | 0.0 | 0.00 | 0.02 | 0.00 | 44 | 970.0 |
| 20260505165053 | 54 | 262 | 4.0 | 4.0 | 0.00 | 0.02 | 0.00 | 44 | 969.9 |
| 20260505164416 | 54 | 297 | 4.0 | 5.0 | 0.00 | 0.02 | 0.00 | 44 | 970.0 |
| 20260505163735 | 54 | 270 | 6.0 | 6.0 | 0.00 | 0.02 | 0.00 | 43 | 970.1 |
| 20260505163057 | 53 | 328 | 6.0 | 0.0 | 0.00 | 0.02 | 0.00 | 45 | 970.1 |
| 20260505162417 | 53 | 318 | 5.0 | 6.0 | 0.00 | 0.02 | 0.00 | 43 | 970.2 |
| 20260505161739 | 53 | 259 | 4.0 | 7.0 | 0.00 | 0.02 | 0.00 | 45 | 970.2 |
| 20260505161058 | 53 | 307 | 8.0 | 5.0 | 0.00 | 0.02 | 0.00 | 44 | 970.2 |
| 20260505160421 | 53 | 245 | 10.0 | 5.0 | 0.00 | 0.02 | 0.00 | 43 | 970.3 |
| 20260505153104 | 51 | 243 | 7.0 | 0.0 | 0.00 | 0.02 | 0.00 | 47 | 970.3 |
| 20260505152427 | 51 | 316 | 7.0 | 9.0 | 0.00 | 0.02 | 0.00 | 47 | 970.6 |
| 20260505151746 | 51 | 177 | 6.0 | 5.0 | 0.00 | 0.02 | 0.00 | 46 | 970.5 |
| 20260505151109 | 51 | 305 | 7.0 | 8.0 | 0.00 | 0.02 | 0.00 | 47 | 970.5 |
| 20260505150428 | 51 | 301 | 7.0 | 7.0 | 0.00 | 0.02 | 0.00 | 47 | 970.8 |
| 20260505140438 | 49 | 248 | 2.0 | 0.0 | 0.00 | 0.02 | 0.00 | 59 | 970.7 |
| 20260505124449 | 48 | 277 | 4.0 | 0.0 | 0.00 | 0.02 | 0.00 | 73 | 969.6 |
| 20260505123809 | 47 | 284 | 3.0 | 0.0 | 0.00 | 0.02 | 0.00 | 76 | 969.6 |
| 20260505123131 | 47 | 260 | 5.0 | 1.0 | 0.00 | 0.02 | 0.00 | 76 | 969.6 |
| 20260505122451 | 47 | 287 | 2.0 | 0.0 | 0.00 | 0.02 | 0.00 | 78 | 969.6 |
| 20260505121813 | 47 | 263 | 3.0 | 3.0 | 0.00 | 0.02 | 0.00 | 81 | 969.5 |
| 20260505121132 | 46 | 290 | 0.0 | 6.0 | 0.00 | 0.02 | 0.00 | 84 | 969.7 |
| 20260505120455 | 46 | 245 | 2.0 | 0.0 | 0.00 | 0.02 | 0.00 | 87 | 969.7 |
| 20260505115814 | 46 | 260 | 5.0 | 4.0 | 0.00 | 0.02 | 0.00 | 89 | 969.7 |
| 20260505115137 | 46 | 291 | 0.0 | 0.0 | 0.00 | 0.02 | 0.00 | 90 | 969.7 |
| 20260505114456 | 45 | 228 | 1.0 | 0.0 | 0.00 | 0.02 | 0.00 | 90 | 969.7 |
| 20260505113819 | 45 | 232 | 2.0 | 0.0 | 0.00 | 0.02 | 0.00 | 90 | 969.7 |
| 20260505113138 | 45 | 312 | 1.0 | 0.0 | 0.00 | 0.02 | 0.00 | 91 | 969.5 |
| 20260505112501 | 45 | 263 | 0.0 | 0.0 | 0.00 | 0.02 | 0.00 | 91 | 969.0 |
| 20260505111820 | 45 | 263 | 0.0 | 0.0 | 0.00 | 0.02 | 0.00 | 91 | 968.9 |
| 20260505111142 | 44 | 346 | 0.0 | 0.0 | 0.00 | 0.02 | 0.00 | 91 | 968.8 |
| 20260505110501 | 44 | 346 | 0.0 | 0.0 | 0.00 | 0.02 | 0.00 | 92 | 968.8 |
| 20260505101829 | 45 | 346 | 0.0 | 0.0 | 0.00 | 0.02 | 0.00 | 89 | 968.3 |
| 20260505101148 | 45 | 346 | 0.0 | 0.0 | 0.00 | 0.02 | 0.00 | 88 | 967.9 |
| 20260505100511 | 45 | 346 | 0.0 | 0.0 | 0.00 | 0.02 | 0.00 | 88 | 967.8 |
| 20260505095830 | 45 | 346 | 0.0 | 0.0 | 0.00 | 0.02 | 0.00 | 87 | 967.7 |
| 20260505095153 | 46 | 346 | 0.0 | 0.0 | 0.00 | 0.02 | 0.00 | 86 | 967.6 |
| 20260505094512 | 46 | 346 | 0.0 | 0.0 | 0.00 | 0.02 | 0.00 | 86 | 967.5 |
| 20260505093835 | 46 | 346 | 0.0 | 0.0 | 0.00 | 0.02 | 0.00 | 85 | 967.4 |
| 20260505093154 | 47 | 346 | 0.0 | 0.0 | 0.00 | 0.02 | 0.00 | 85 | 967.1 |
| 20260505092516 | 47 | 346 | 0.0 | 0.0 | 0.00 | 0.02 | 0.00 | 85 | 967.1 |
| 20260505091835 | 47 | 343 | 4.0 | 4.0 | 0.00 | 0.02 | 0.00 | 84 | 966.8 |
| 20260505091158 | 47 | 4 | 6.0 | 6.0 | 0.00 | 0.02 | 0.00 | 85 | 966.6 |
| 20260505090517 | 48 | 297 | 7.0 | 6.0 | 0.00 | 0.02 | 0.00 | 84 | 966.4 |
| 20260505085840 | 48 | 349 | 8.0 | 8.0 | 0.00 | 0.02 | 0.00 | 84 | 966.3 |
| 20260505085159 | 48 | 336 | 6.0 | 7.0 | 0.00 | 0.02 | 0.00 | 84 | 966.4 |
| 20260505084522 | 48 | 0 | 6.0 | 6.0 | 0.00 | 0.02 | 0.00 | 84 | 966.3 |
| 20260505083841 | 49 | 3 | 9.0 | 5.0 | 0.00 | 0.02 | 0.00 | 84 | 966.1 |
| 20260505083203 | 49 | 352 | 4.0 | 7.0 | 0.00 | 0.02 | 0.00 | 86 | 965.9 |
| 20260505082523 | 50 | 25 | 7.0 | 9.0 | 0.00 | 0.02 | 0.00 | 87 | 965.7 |
| 20260505081845 | 50 | 308 | 7.0 | 9.0 | 0.00 | 0.02 | 0.00 | 87 | 965.5 |
| 20260505081204 | 51 | 329 | 8.0 | 9.0 | 0.00 | 0.02 | 0.00 | 85 | 965.3 |
| 20260505080527 | 52 | 349 | 9.0 | 12.0 | 0.00 | 0.02 | 0.00 | 80 | 965.0 |
| 20260505075846 | 52 | 305 | 9.0 | 8.0 | 0.00 | 0.02 | 0.00 | 74 | 964.9 |
| 20260505075209 | 52 | 309 | 2.0 | 4.0 | 0.00 | 0.02 | 0.00 | 70 | 964.7 |
| 20260505074528 | 53 | 284 | 2.0 | 0.0 | 0.00 | 0.02 | 0.00 | 67 | 964.4 |
| 20260505073850 | 53 | 357 | 0.0 | 0.0 | 0.00 | 0.02 | 0.00 | 66 | 964.3 |
| 20260505073210 | 54 | 256 | 0.0 | 0.0 | 0.00 | 0.02 | 0.00 | 64 | 964.1 |
| 20260505072532 | 54 | 266 | 1.0 | 0.0 | 0.00 | 0.02 | 0.00 | 63 | 963.9 |
| 20260505071851 | 54 | 291 | 0.0 | 0.0 | 0.00 | 0.02 | 0.00 | 63 | 963.9 |
| 20260505071214 | 55 | 291 | 0.0 | 0.0 | 0.00 | 0.02 | 0.00 | 63 | 963.8 |
| 20260505070533 | 55 | 270 | 3.0 | 0.0 | 0.00 | 0.02 | 0.00 | 63 | 963.9 |
| 20260505065856 | 55 | 260 | 0.0 | 0.0 | 0.00 | 0.02 | 0.00 | 63 | 963.9 |
| 20260505065215 | 55 | 294 | 0.0 | 0.0 | 0.00 | 0.02 | 0.00 | 62 | 963.8 |
| 20260505064537 | 55 | 176 | 0.0 | 0.0 | 0.00 | 0.02 | 0.00 | 62 | 963.7 |
| 20260505063857 | 55 | 300 | 4.0 | 0.0 | 0.00 | 0.02 | 0.00 | 62 | 963.7 |
| 20260505063219 | 55 | 294 | 2.0 | 5.0 | 0.00 | 0.02 | 0.00 | 63 | 963.8 |
| 20260505062538 | 55 | 269 | 0.0 | 0.0 | 0.00 | 0.02 | 0.00 | 64 | 963.7 |
| 20260505061901 | 55 | 297 | 5.0 | 0.0 | 0.00 | 0.02 | 0.00 | 66 | 963.7 |
| 20260505061220 | 56 | 287 | 0.0 | 0.0 | 0.00 | 0.02 | 0.00 | 68 | 963.6 |
| 20260505060543 | 56 | 246 | 0.0 | 0.0 | 0.00 | 0.02 | 0.00 | 70 | 963.6 |
| 20260505055902 | 56 | 233 | 2.0 | 0.0 | 0.00 | 0.02 | 0.00 | 70 | 963.6 |
| 20260505055225 | 56 | 242 | 0.0 | 0.0 | 0.00 | 0.02 | 0.00 | 71 | 963.5 |
| 20260505054544 | 56 | 239 | 0.0 | 3.0 | 0.00 | 0.02 | 0.00 | 71 | 963.5 |
| 20260505053906 | 56 | 257 | 5.0 | 0.0 | 0.00 | 0.02 | 0.00 | 72 | 963.2 |
| 20260505053225 | 56 | 257 | 4.0 | 3.0 | 0.00 | 0.02 | 0.00 | 73 | 962.9 |
| 20260505052548 | 56 | 315 | 5.0 | 6.0 | 0.00 | 0.02 | 0.00 | 73 | 963.0 |
| 20260505051907 | 56 | 293 | 1.0 | 3.0 | 0.00 | 0.02 | 0.00 | 73 | 962.9 |
| 20260505050549 | 56 | 243 | 1.0 | 0.0 | 0.00 | 0.02 | 0.00 | 75 | 962.8 |
| 20260505041236 | 57 | 218 | 3.0 | 0.0 | 0.00 | 0.02 | 0.00 | 79 | 962.7 |
| 20260505040558 | 57 | 228 | 2.0 | 0.0 | 0.00 | 0.02 | 0.00 | 79 | 962.5 |
| 20260505035917 | 58 | 219 | 5.0 | 1.0 | 0.00 | 0.00 | 0.02 | 79 | 962.8 |
| 20260505035240 | 58 | 294 | 0.0 | 5.0 | 0.00 | 0.00 | 0.02 | 78 | 962.4 |
| 20260505034559 | 58 | 236 | 3.0 | 0.0 | 0.00 | 0.00 | 0.02 | 78 | 962.6 |
| 20260505033922 | 59 | 226 | 2.0 | 3.0 | 0.00 | 0.00 | 0.02 | 78 | 962.7 |
| 20260505033241 | 59 | 228 | 5.0 | 0.0 | 0.00 | 0.00 | 0.02 | 77 | 962.4 |
| 20260505032603 | 59 | 288 | 7.0 | 3.0 | 0.00 | 0.00 | 0.02 | 76 | 962.1 |
| 20260505031922 | 60 | 217 | 7.0 | 6.0 | 0.00 | 0.00 | 0.02 | 74 | 962.2 |
| 20260505031245 | 60 | 218 | 5.0 | 2.0 | 0.00 | 0.00 | 0.02 | 73 | 962.2 |